• In Hungary
  • List of Countries
  • For 7 days
  • Water Temperature
  • Satellite Maps
  • Weather Map
  • News
  • Weather Widgets
  • user-avatar
    Login

    Hourly Weather Oktyabrskiy

    Today, 23 September, Sunday

    Time Temperature Precipitation Wind Pressure Humidity
    00:00 +8°C° 0 mm 2 mps 750 mmHg 91%
    01:00 +8°C° 0 mm 2 mps 749 mmHg 91%
    02:00 +7°C° 0 mm 2 mps 749 mmHg 92%
    03:00 +7°C° 0 mm 2 mps 749 mmHg 92%
    04:00 +8°C° 0 mm 1 mps 749 mmHg 92%
    05:00 +8°C° 0 mm 1 mps 750 mmHg 92%
    06:00 +8°C° 0.1 mm 1 mps 750 mmHg 90%
    07:00 +9°C° 0.1 mm 1 mps 750 mmHg 87%
    08:00 +10°C° 0.1 mm 1 mps 750 mmHg 85%
    09:00 +11°C° 0 mm 1 mps 750 mmHg 80%
    10:00 +13°C° 0 mm 1 mps 750 mmHg 76%
    11:00 +14°C° 0 mm 1 mps 750 mmHg 71%
    12:00 +14°C° 0.1 mm 1 mps 750 mmHg 68%
    13:00 +15°C° 0.1 mm 1 mps 749 mmHg 65%
    14:00 +16°C° 0.1 mm 1 mps 749 mmHg 61%
    15:00 +15°C° 0.1 mm 1 mps 750 mmHg 67%
    16:00 +14°C° 0.1 mm 1 mps 750 mmHg 73%
    17:00 +13°C° 0.1 mm 1 mps 750 mmHg 79%
    18:00 +11°C° 0 mm 1 mps 750 mmHg 82%
    19:00 +10°C° 0 mm 1 mps 750 mmHg 86%
    20:00 +9°C° 0 mm 1 mps 750 mmHg 89%
    21:00 +9°C° 0 mm 1 mps 750 mmHg 91%
    22:00 +8°C° 0 mm 1 mps 750 mmHg 92%
    23:00 +8°C° 0 mm 1 mps 750 mmHg 93%

    Tomorrow, 24 September, Monday

    Time Temperature Precipitation Wind Pressure Humidity
    00:00 +8°C° 0 mm 1 mps 750 mmHg 93%
    01:00 +7°C° 0 mm 1 mps 750 mmHg 94%
    02:00 +7°C° 0 mm 1 mps 750 mmHg 94%
    03:00 +7°C° 0 mm 1 mps 751 mmHg 95%
    04:00 +7°C° 0 mm 1 mps 751 mmHg 95%
    05:00 +6°C° 0 mm 2 mps 751 mmHg 96%
    06:00 +7°C° 0 mm 2 mps 751 mmHg 93%
    07:00 +8°C° 0 mm 2 mps 751 mmHg 90%
    08:00 +9°C° 0 mm 2 mps 751 mmHg 88%
    09:00 +10°C° 0 mm 2 mps 751 mmHg 83%
    10:00 +13°C° 0 mm 2 mps 751 mmHg 77%
    11:00 +14°C° 0 mm 2 mps 751 mmHg 72%
    12:00 +14°C° 0 mm 2 mps 751 mmHg 70%
    13:00 +14°C° 0 mm 3 mps 751 mmHg 67%
    14:00 +14°C° 0 mm 3 mps 751 mmHg 65%
    15:00 +14°C° 0.1 mm 2 mps 751 mmHg 70%
    16:00 +13°C° 0.1 mm 2 mps 751 mmHg 75%
    17:00 +12°C° 0.1 mm 2 mps 752 mmHg 80%
    18:00 +10°C° 0 mm 2 mps 752 mmHg 84%
    19:00 +10°C° 0 mm 2 mps 752 mmHg 88%
    20:00 +9°C° 0 mm 2 mps 752 mmHg 92%
    21:00 +9°C° 0 mm 2 mps 752 mmHg 94%
    22:00 +9°C° 0 mm 2 mps 752 mmHg 95%
    23:00 +8°C° 0 mm 2 mps 752 mmHg 97%

    Day after tomorrow, 25 September, Tuesday

    Time Temperature Precipitation Wind Pressure Humidity
    00:00 +8°C° 0 mm 2 mps 752 mmHg 97%
    01:00 +8°C° 0 mm 2 mps 752 mmHg 97%
    02:00 +8°C° 0 mm 2 mps 752 mmHg 97%
    03:00 +8°C° 0 mm 2 mps 752 mmHg 98%
    04:00 +8°C° 0 mm 2 mps 752 mmHg 98%
    05:00 +8°C° 0 mm 2 mps 752 mmHg 98%
    06:00 +9°C° 0 mm 2 mps 753 mmHg 95%
    07:00 +10°C° 0 mm 2 mps 753 mmHg 93%
    08:00 +12°C° 0 mm 2 mps 753 mmHg 90%
    09:00 +14°C° 0 mm 2 mps 753 mmHg 84%
    10:00 +14°C° 0 mm 3 mps 753 mmHg 78%
    11:00 +17°C° 0 mm 3 mps 753 mmHg 72%
    12:00 +17°C° 0 mm 3 mps 753 mmHg 71%
    13:00 +18°C° 0 mm 3 mps 753 mmHg 69%
    14:00 +19°C° 0 mm 4 mps 753 mmHg 67%
    15:00 +18°C° 0 mm 3 mps 753 mmHg 72%
    16:00 +17°C° 0 mm 3 mps 753 mmHg 77%
    17:00 +16°C° 0 mm 2 mps 753 mmHg 83%
    18:00 +16°C° 0 mm 3 mps 753 mmHg 86%
    19:00 +14°C° 0 mm 3 mps 753 mmHg 89%
    20:00 +14°C° 0 mm 3 mps 754 mmHg 92%
    21:00 +13°C° 0 mm 3 mps 754 mmHg 92%
    22:00 +13°C° 0 mm 3 mps 754 mmHg 93%
    23:00 +12°C° 0 mm 3 mps 754 mmHg 94%

    26 September, Wednesday

    Time Temperature Precipitation Wind Pressure Humidity
    00:00 +12°C° 0 mm 3 mps 754 mmHg 94%
    01:00 +12°C° 0 mm 3 mps 754 mmHg 95%
    02:00 +12°C° 0 mm 3 mps 754 mmHg 95%
    03:00 +11°C° 0.1 mm 3 mps 754 mmHg 96%
    04:00 +11°C° 0.1 mm 3 mps 755 mmHg 97%
    05:00 +11°C° 0.1 mm 3 mps 755 mmHg 97%
    06:00 +12°C° 0 mm 3 mps 755 mmHg 95%
    07:00 +13°C° 0 mm 3 mps 755 mmHg 92%
    08:00 +13°C° 0 mm 3 mps 755 mmHg 90%
    09:00 +16°C° 0 mm 3 mps 755 mmHg 83%
    10:00 +17°C° 0 mm 4 mps 755 mmHg 76%
    11:00 +19°C° 0 mm 4 mps 755 mmHg 69%
    12:00 +20°C° 0 mm 4 mps 755 mmHg 64%
    13:00 +21°C° 0 mm 4 mps 755 mmHg 60%
    14:00 +21°C° 0 mm 4 mps 755 mmHg 55%
    15:00 +20°C° 0 mm 4 mps 755 mmHg 60%
    16:00 +19°C° 0 mm 3 mps 755 mmHg 65%
    17:00 +18°C° 0 mm 3 mps 755 mmHg 69%
    18:00 +17°C° 0 mm 3 mps 756 mmHg 71%
    19:00 +17°C° 0 mm 3 mps 756 mmHg 72%
    20:00 +15°C° 0 mm 4 mps 756 mmHg 73%
    21:00 +14°C° 0 mm 4 mps 756 mmHg 75%
    22:00 +14°C° 0 mm 4 mps 756 mmHg 77%
    23:00 +13°C° 0 mm 4 mps 756 mmHg 79%

    27 September, Thursday

    Time Temperature Precipitation Wind Pressure Humidity
    00:00 +13°C° 0 mm 3 mps 756 mmHg 81%
    01:00 +12°C° 0 mm 3 mps 756 mmHg 83%
    02:00 +12°C° 0 mm 3 mps 756 mmHg 86%
    03:00 +12°C° 0 mm 3 mps 756 mmHg 86%
    04:00 +11°C° 0 mm 3 mps 756 mmHg 87%
    05:00 +11°C° 0 mm 3 mps 756 mmHg 88%
    06:00 +12°C° 0 mm 3 mps 756 mmHg 85%
    07:00 +12°C° 0 mm 3 mps 756 mmHg 81%
    08:00 +13°C° 0 mm 3 mps 756 mmHg 77%
    09:00 +15°C° 0 mm 4 mps 756 mmHg 70%
    10:00 +18°C° 0 mm 4 mps 756 mmHg 62%
    11:00 +19°C° 0 mm 5 mps 756 mmHg 55%
    12:00 +20°C° 0 mm 5 mps 756 mmHg 52%
    13:00 +21°C° 0 mm 5 mps 755 mmHg 49%
    14:00 +22°C° 0 mm 5 mps 755 mmHg 46%
    15:00 +20°C° 0 mm 5 mps 755 mmHg 50%
    16:00 +19°C° 0 mm 4 mps 755 mmHg 54%
    17:00 +18°C° 0 mm 4 mps 755 mmHg 59%
    18:00 +17°C° 0 mm 4 mps 755 mmHg 61%
    19:00 +15°C° 0 mm 4 mps 755 mmHg 63%
    20:00 +14°C° 0 mm 4 mps 755 mmHg 65%
    21:00 +13°C° 0 mm 4 mps 755 mmHg 68%
    22:00 +13°C° 0 mm 4 mps 755 mmHg 70%
    23:00 +12°C° 0 mm 4 mps 755 mmHg 73%

    28 September, Friday

    Time Temperature Precipitation Wind Pressure Humidity
    00:00 +12°C° 0 mm 4 mps 754 mmHg 76%
    01:00 +12°C° 0 mm 4 mps 754 mmHg 78%
    02:00 +12°C° 0 mm 4 mps 754 mmHg 81%
    03:00 +12°C° 0 mm 4 mps 754 mmHg 81%
    04:00 +12°C° 0 mm 4 mps 753 mmHg 81%
    05:00 +12°C° 0 mm 5 mps 753 mmHg 81%
    06:00 +12°C° 0 mm 5 mps 753 mmHg 76%
    07:00 +13°C° 0 mm 5 mps 752 mmHg 71%
    08:00 +14°C° 0 mm 5 mps 752 mmHg 67%
    09:00 +16°C° 0 mm 6 mps 751 mmHg 61%
    10:00 +17°C° 0 mm 6 mps 751 mmHg 55%
    11:00 +20°C° 0 mm 6 mps 751 mmHg 49%
    12:00 +20°C° 0 mm 6 mps 750 mmHg 47%
    13:00 +20°C° 0 mm 6 mps 749 mmHg 46%
    14:00 +21°C° 0 mm 6 mps 749 mmHg 44%
    15:00 +19°C° 0 mm 5 mps 749 mmHg 49%
    16:00 +17°C° 0 mm 5 mps 748 mmHg 54%
    17:00 +17°C° 0 mm 4 mps 748 mmHg 58%
    18:00 +15°C° 0.1 mm 4 mps 748 mmHg 63%
    19:00 +15°C° 0.1 mm 4 mps 748 mmHg 68%
    20:00 +14°C° 0.1 mm 3 mps 748 mmHg 73%
    21:00 +13°C° 0.1 mm 4 mps 748 mmHg 76%
    22:00 +12°C° 0.1 mm 4 mps 748 mmHg 79%
    23:00 +11°C° 0.1 mm 4 mps 748 mmHg 82%
    Show more